Weather History for Troy, AL

Change the Weather History Date:

Friday, October 19, 2012

  Actual Average Record
Temperature  
Mean Temperature 60 °F 64 °F  
Max Temperature 76 °F 77 °F 86 °F (2005)
Min Temperature 43 °F 51 °F 41 °F (2001)
Degree Days  
Heating Degree Days 5 3  
Month to date heating degree days 16 35  
Since 1 July heating degree days 16 39  
Cooling Degree Days 0 2  
Month to date cooling degree days 50 75  
Year to date cooling degree days 2080 2023  
Growing Degree Days 10 (Base 50)    
Moisture  
Dew Point 41 °F    
Average Humidity 59    
Maximum Humidity 100    
Minimum Humidity 18    
Precipitation  
Precipitation 0.00 in 0.10 in 2.15 in (2007)
Month to date precipitation 1.88 1.88  
Year to date precipitation 50.03 43.79  
Snow  
Snow 0.00 in - - ()
Month to date snowfall 0.0  
Since 1 July snowfall 0.0  
Since 1 September snowfall 0.0  
Snow Depth 0.00 in    
Sea Level Pressure  
Sea Level Pressure 29.87 in    
Wind  
Wind Speed 4 mph (WSW)    
Max Wind Speed 18 mph    
Max Gust Speed 24 mph    
Visibility 10 miles    
Events      
T = Trace of Precipitation, MM = Missing Value Source: NWS Daily Summary

Daily Weather History Graph

Daily Weather History Graph

Search for Another Location

Airport:

Trip Planner

Search our weather history database for the weather conditions in past years. The results will help you decide how hot, cold, wet, or windy it might be!

Date:

Astronomy

Oct. 19, 2012 Rise Set
Actual Time 6:50 AM CDT 6:06 PM CDT
Civil Twilight 6:25 AM CDT 6:31 PM CDT
Nautical Twilight 5:57 AM CDT 6:59 PM CDT
Astronomical Twilight 5:29 AM CDT 7:28 PM CDT
Moon 11:20 AM CDT (10/19) 9:56 PM CDT (10/19)
Length of Visible Light 12h 05m
Length of Day
11h 16m
Waxing Crescent, 24% of the Moon is Illuminated
Oct 19
Waxing Crescent
Oct 21
First Quarter
Oct 29
Full
Nov 6
Last Quarter
Nov 13
New

Hourly Weather History & Observations

Time (CDT) Temp. Dew Point Humidity Pressure Visibility Wind Dir Wind Speed Gust Speed Precip Events Conditions
12:53 AM 50.0 °F 48.9 °F 96% 29.88 in 10.0 mi Calm Calm - N/A   Clear
1:53 AM 48.9 °F 48.0 °F 97% 29.88 in 10.0 mi Calm Calm - N/A   Clear
2:53 AM 46.9 °F 46.0 °F 97% 29.88 in 9.0 mi Calm Calm - N/A   Clear
3:53 AM 46.0 °F 45.0 °F 96% 29.88 in 6.0 mi Calm Calm - N/A   Clear
4:53 AM 46.9 °F 44.1 °F 90% 29.88 in 10.0 mi Calm Calm - N/A   Clear
5:53 AM 45.0 °F 43.0 °F 93% 29.89 in 10.0 mi Calm Calm - N/A   Clear
6:53 AM 44.1 °F 42.1 °F 93% 29.89 in 10.0 mi Calm Calm - N/A   Clear
7:53 AM 48.0 °F 46.0 °F 93% 29.89 in 10.0 mi Calm Calm - N/A   Clear
8:53 AM 57.0 °F 50.0 °F 77% 29.91 in 10.0 mi Calm Calm - N/A   Clear
9:53 AM 68.0 °F 43.0 °F 40% 29.91 in 10.0 mi WNW 9.2 mph - N/A   Clear
10:53 AM 71.1 °F 37.0 °F 29% 29.91 in 10.0 mi WSW 8.1 mph - N/A   Clear
11:53 AM 73.0 °F 32.0 °F 22% 29.90 in 10.0 mi West 10.4 mph 18.4 mph N/A   Clear
12:53 PM 73.9 °F 32.0 °F 21% 29.87 in 10.0 mi WSW 18.4 mph 21.9 mph N/A   Clear
1:53 PM 73.9 °F 30.9 °F 21% 29.84 in 10.0 mi West 11.5 mph - N/A   Clear
2:53 PM 75.0 °F 28.9 °F 18% 29.83 in 10.0 mi WSW 12.7 mph 19.6 mph N/A   Clear
3:53 PM 73.9 °F 28.9 °F 19% 29.82 in 10.0 mi West 10.4 mph 23.0 mph N/A   Clear
4:53 PM 73.0 °F 30.9 °F 21% 29.81 in 10.0 mi WSW 8.1 mph - N/A   Clear
5:53 PM 68.0 °F 36.0 °F 31% 29.83 in 10.0 mi WSW 4.6 mph - N/A   Clear
6:53 PM 57.0 °F 44.1 °F 62% 29.84 in 10.0 mi Calm Calm - N/A   Clear
7:53 PM 53.1 °F 46.9 °F 80% 29.86 in 10.0 mi Calm Calm - N/A   Clear
8:53 PM 50.0 °F 46.9 °F 89% 29.87 in 10.0 mi Calm Calm - N/A   Clear
9:53 PM 51.1 °F 46.0 °F 83% 29.88 in 10.0 mi Calm Calm - N/A   Clear
10:53 PM 50.0 °F 46.0 °F 86% 29.88 in 10.0 mi Calm Calm - N/A   Clear
11:53 PM 48.9 °F 45.0 °F 86% 29.89 in 10.0 mi Calm Calm - N/A   Clear